Location: Jackson Park
(37.2862°N, 79.9123°W)
Time: 11:32:13
(UTC+00:00)

Vanguard 2 - Pass Details

Date: 10 May 2026
Orbit: 553 x 2894 km, 32.9° (Epoch: 11 June)

Event Time Altitude Azimuth Distance (km) Brightness Sun altitude
Rises 13:51:49 0° 279° (W) 5,807 11.6 41.3°
Reaches altitude 10° 13:56:27 10° 274° (W) 4,423 11.1 42.3°
Maximum altitude 14:06:34 40° 210° (SSW) 1,931 9.8 44.2°
Drops below altitude 10° 14:12:56 10° 143° (SE) 2,782 11.1 45.5°
Sets 14:15:14 0° 135° (SE) 3,496 11.5 45.9°
